Voltar ao catálogo

METEOR 2-17 DEB

LostPO
NORAD 38543·DEBRIS·🇷🇺 Russia

Lançado Jan 30, 1988 de Plesetsk Cosmodrome

Loading…

Próximas Passagens (próximas 24 horas)

TLE

ObsoletoSource: Space-Track

Época: Dec 26, 2023, 21:30 UTC

1 38543U 88005AW  23360.89647569  .00011316  00000-0  43087-2 0  9998
2 38543  82.5297  61.5614 0011935 255.1981 104.7883 14.30771457984888

Acompanhe METEOR 2-17 DEB em tempo real com AllMySat

Download on the App Store